Location: Musselshell
(46.5176°N, 108.0911°W)
Time: 09:07:28
(UTC+00:00)

YUBILEINY - Pass Details

Date: 05 July 2022
Orbit: 1478 x 1509 km, 82.5° (Epoch: 13 August)

Event Time Altitude Azimuth Distance (km) Brightness Sun altitude
Rises 08:19:44 0° 356° (N) 4,653 ? -19.3°
Reaches altitude 10° 08:25:29 10° 25° (NNE) 3,660 ? -19.0°
Maximum altitude 08:28:37 12° 47° (NE) 3,487 ? -18.8°
Drops below altitude 10° 08:31:44 10° 68° (ENE) 3,646 ? -18.7°
Sets 08:37:23 0° 97° (E) 4,613 ? -18.4°
